CZ-6A DEB, 61455

Orbit data source: Space-Track

CZ-6A DEB, 61455 is space debris in LEO originally from a launch on Tue, 06 Aug 2024 UTC launched from the Taiyaun Space Center, China (TSC). Debris objects in space refer to the collection of defunct objects orbiting the Earth. Examples of debris include non-operational satellites, rocket bodies, and fragments generated from explosions, collisions, or faulty payload assembly.

Loading next visibility...
Identifier
61455, 2024-140ZM
Orbit
LEO
Country
Flag of CNCN / PRC
Related business
Manufacturer
SAST
Mission
Spacecraft
Bus & Motor
Unknown
Mass
Unknown
Launch date (UTC)
2024-08-06 (2 years ago)
Launch vehicle
Unknown
Launch site
Taiyaun Space Center, China (TSC)
Object type
Payload
Rocket body
Debris
Shape & HBR
Unknown shape, 0.1 m
Radar Cross Section
Small (<0.1 m²)

Expand to show TLE details & history
Last TLE update: 23 hours ago

TLE from 23 hours ago
0 CZ-6A DEB
1 61455U 24140ZM  26171.01412164  .00010000  00000-0  58028-3 0  9995
2 61455  90.2674  16.0507 0174107  98.1728 263.9296 15.00046553 98468
Epoch: 2026-06-20T00:20Z
TLE epoch observation values (Epoch: 2026-06-20T00:20:20.109Z)
Latitude
-0°
Longitude
102.73208°
Altitude
584.789 km
Speed
7.56 km/s
True Right ascension
01h 04m 12s
True Declination
0° 00' 00"
Sunlit
Object was in daylight at epoch
Visualization orbit readout
Latitude
Unknown
Longitude
Unknown
Altitude
Unknown
Speed
Unknown
Apparent Right ascension
Unknown
Apparent Declination
Unknown
Sunlit
N/A
Visualization observer readout
Local Sidereal Time
10:19:45
Azimuth
Unknown
Elevation
Unknown
Doppler factor
Unknown
Orbital elements
Apogee altitude
684.446 km
Perigee altitude
442.726 km
Semi-major axis
6,941.723 km
Eccentricity
0.01741
Inclination
90.2674°
RAAN
16.0507°
Arg. of periapsis
98.1728°
True anomaly
261.95062°
Mean anomaly
263.9296°
Eccentric anomaly
262.9396°
Mean motion
3.75269 °/min
Orbital period
95.93 mins
BSTAR
0.00058028
Loading maneuver chart data...
Computing Atmospheric mass density...
Loading historical data...
Loading historical data...
Loading historical data...
Loading historical data...
Loading historical data...
Loading historical data...
Loading historical data...

Documentation

Showing up to 5 results
|